Savannah, GA

9:19 AM EST on December 11, 2017 (GMT -0500)
Savannah International

Weather History for KSAV - March, 2013

Change the Weather History Date:

Sunday, March 3, 2013

  Actual Average Record
Temperature  
Mean Temperature 40 °F 56 °F  
Max Temperature 47 °F 68 °F 85 °F (1951)
Min Temperature 32 °F 45 °F 20 °F (1980)
Degree Days  
Heating Degree Days 25 9  
Month to date heating degree days 65 28  
Since 1 July heating degree days 1287 1545  
Cooling Degree Days 0 1  
Month to date cooling degree days 0 3  
Year to date cooling degree days 28 13  
Moisture  
Dew Point 25 °F    
Average Humidity 58    
Maximum Humidity 78    
Minimum Humidity 38    
Precipitation  
Precipitation 0.00 in 0.12 in 2.70 in (1948)
Month to date precipitation 0.00 0.35  
Year to date precipitation 10.30 6.83  
Snow  
Snow 0.00 in 0.00 in - ()
Month to date snowfall 0.0  
Since 1 July snowfall 0.0 0.3  
Snow Depth 0.00 in    
Sea Level Pressure  
Sea Level Pressure 30.01 in    
Wind  
Wind Speed 9 mph (WNW)    
Max Wind Speed 22 mph    
Max Gust Speed 26 mph    
Visibility 10 miles    
Events      
T = Trace of Precipitation, MM = Missing Value Source: NWS Daily Summary

Daily Weather History Graph

Daily Weather History Graph

Search for Another Location

Airport or City:

Trip Planner

Search our weather history database for the weather conditions in past years. The results will help you decide how hot, cold, wet, or windy it might be!

Date:

Astronomy

Mar. 03, 2013 Rise Set
Actual Time 6:49 AM EST 6:24 PM EST
Civil Twilight 6:25 AM EST 6:48 PM EST
Nautical Twilight 5:56 AM EST 7:17 PM EST
Astronomical Twilight 5:28 AM EST 7:45 PM EST
Moon No Moon Rise 10:26 AM EST (3/3)
Length of Visible Light 12h 23m
Length of Day
11h 34m
Waning Gibbous, 64% of the Moon is Illuminated
Mar 3
Waning Gibbous
Mar 4
Last Quarter
Mar 11
New
Mar 19
First Quarter
Mar 27
Full

Hourly Weather History & Observations

Time (EST) Temp. Windchill Dew Point Humidity Pressure Visibility Wind Dir Wind Speed Gust Speed Precip Events Conditions
12:53 AM 35.1 °F 30.1 °F 27.0 °F 72% 29.99 in 10.0 mi West 5.8 mph - N/A   Clear
1:53 AM 34.0 °F 28.0 °F 27.0 °F 75% 29.98 in 10.0 mi West 6.9 mph - N/A   Clear
2:53 AM 33.1 °F 26.9 °F 27.0 °F 78% 29.97 in 10.0 mi West 6.9 mph - N/A   Clear
3:53 AM 32.0 °F 25.6 °F 27.0 °F 82% 29.97 in 10.0 mi West 6.9 mph - N/A   Clear
4:53 AM 32.0 °F 25.6 °F 27.0 °F 82% 29.97 in 10.0 mi West 6.9 mph - N/A   Clear
5:53 AM 32.0 °F 24.8 °F 26.1 °F 79% 29.98 in 10.0 mi West 8.1 mph - N/A   Clear
6:42 AM 33.8 °F 25.3 °F 26.6 °F 75% 29.99 in 10.0 mi WNW 11.5 mph - N/A   Mostly Cloudy
6:53 AM 34.0 °F 25.5 °F 26.1 °F 73% 29.99 in 10.0 mi WNW 11.5 mph - N/A   Overcast
7:21 AM 35.6 °F 27.1 °F 26.6 °F 70% 29.99 in 10.0 mi NW 12.7 mph - N/A   Mostly Cloudy
7:53 AM 36.0 °F 28.5 °F 26.1 °F 67% 30.01 in 10.0 mi NW 10.4 mph - N/A   Mostly Cloudy
8:53 AM 37.9 °F 32.1 °F 26.1 °F 62% 30.02 in 10.0 mi NW 8.1 mph - N/A   Mostly Cloudy
9:05 AM 39.2 °F 31.2 °F 26.6 °F 61% 30.02 in 10.0 mi NW 13.8 mph - N/A   Overcast
9:17 AM 39.2 °F 31.2 °F 24.8 °F 56% 30.01 in 10.0 mi NW 13.8 mph - N/A   Overcast
9:53 AM 39.0 °F 31.4 °F 25.0 °F 57% 30.03 in 10.0 mi NW 12.7 mph - N/A   Overcast
10:53 AM 39.9 °F 33.9 °F 25.0 °F 55% 30.03 in 10.0 mi WNW 9.2 mph - N/A   Overcast
11:53 AM 43.0 °F 38.2 °F 26.1 °F 51% 30.02 in 10.0 mi West 8.1 mph - N/A   Overcast
12:53 PM 46.0 °F 41.9 °F 24.1 °F 42% 30.00 in 10.0 mi WNW 8.1 mph - N/A   Mostly Cloudy
1:53 PM 46.0 °F 40.2 °F 23.0 °F 40% 29.98 in 10.0 mi WNW 12.7 mph - N/A   Mostly Cloudy
2:53 PM 45.0 °F 38.5 °F 23.0 °F 42% 29.97 in 10.0 mi WNW 13.8 mph - N/A   Overcast
3:53 PM 45.0 °F 37.6 °F 21.0 °F 39% 29.98 in 10.0 mi WNW 17.3 mph 24.2 mph N/A   Mostly Cloudy
4:53 PM 44.1 °F 37.7 °F 21.0 °F 40% 29.99 in 10.0 mi WNW 12.7 mph 21.9 mph N/A   Mostly Cloudy
5:53 PM 42.1 °F 34.9 °F 21.0 °F 43% 30.01 in 10.0 mi West 13.8 mph 20.7 mph N/A   Scattered Clouds
6:53 PM 39.0 °F 32.8 °F 21.9 °F 50% 30.04 in 10.0 mi West 9.2 mph - N/A   Partly Cloudy
7:53 PM 36.0 °F 30.3 °F 23.0 °F 59% 30.05 in 10.0 mi West 6.9 mph - N/A   Clear
8:53 PM 35.1 °F 28.6 °F 24.1 °F 64% 30.07 in 10.0 mi West 8.1 mph - N/A   Clear
9:53 PM 34.0 °F 27.2 °F 24.1 °F 67% 30.08 in 10.0 mi West 8.1 mph - N/A   Clear
10:53 PM 33.1 °F 26.9 °F 23.0 °F 66% 30.09 in 10.0 mi West 6.9 mph - N/A   Clear
11:53 PM 33.1 °F 27.7 °F 24.1 °F 70% 30.09 in 10.0 mi West 5.8 mph - N/A   Clear